Regional Weather Roundup
Issued by NWS Goodland, KS

Home | Current Version | Previous Version | Graphics & Text | Print | Product List | Glossary On
Versions: 1 2 3 4 5 6 7 8 9 10 11 12 13 14 15 16 17 18 19 20 21 22 23 24 25 26 27 28 29 30 31 32 33 34 35 36 37 38 39 40 41 42 43 44 45 46 47 48 49 50
000
ASUS43 KGLD 202308
RWRGLD

GOODLAND FORECAST AREA HOURLY WEATHER ROUNDUP
NATIONAL WEATHER SERVICE GOODLAND KS
500 PM MDT WED AUG 20 2014

...OFFICIAL OBSERVATIONS...

CITY           SKY/WX    TMP DP  RH WIND       PRES   REMARKS
GOODLAND KS    PTSUNNY   92  56  29 N13       29.79R
HILL CITY KS   MOSUNNY   97  59  28 S12       29.71F
IMPERIAL NEB   SUNNY     92  56  29 N5        29.78F
MCCOOK NEB     MOSUNNY   96  61  31 S8        29.72F
AKRON CO       MOSUNNY   85  53  33 S13       29.89R
BURLINGTON CO  CLOUDY    90  51  26 NE5       29.83F
LIMON CO       PTSUNNY   82  51  34 N20       29.94R
$$

...UNOFFICIAL OBSERVATIONS...

CITY           SKY/WX    TMP DP  RH WIND       PRES   REMARKS
COLBY KS       MOSUNNY   88  72  58 E9        29.77F
LENORA KS        N/A     92  32  12 CALM        N/A
NORTON KS      SUNNY     93  55  27 SE9       29.72R
SHARON SPRINGS   N/A     87  62  42 SE5G13      N/A
WAKEENEY KS      N/A     95  55  25 MISG        N/A
KIT CARSON CO    N/A     93  50  22 MISG        N/A
YUMA CO          N/A     86  56  36 E5          N/A
$$



USA.gov is the U.S. government's official web portal to all federal, state and local government web resources and services.